| time (UTC) | temp C | wind direction | speed KPH | gust KPH | rain 1hr cm | rain 24hr cm | rain mn cm | humidity % | barometer mb |
| 20260510160809 | 11 | 40 | 1.6 | 8.0 | 0.13 | 0.46 | 0.25 | 92 | 1010.9 |
| 20260510155308 | 11 | 121 | 1.6 | 11.3 | 0.20 | 0.41 | 0.20 | 92 | 1010.8 |
| 20260510153809 | 12 | 45 | 0.0 | 0.0 | 0.18 | 0.38 | 0.20 | 95 | 1010.6 |
| 20260510153041 | 12 | 45 | 0.0 | 4.8 | 0.18 | 0.38 | 0.18 | 93 | 1010.6 |
| 20260510152427 | 12 | 77 | 0.0 | 9.7 | 0.13 | 0.36 | 0.13 | 91 | 1010.7 |
| 20260510145309 | 12 | 187 | 1.6 | 9.7 | 0.00 | 0.23 | 0.00 | 86 | 1010.4 |
| 20260510143803 | 12 | 192 | 0.0 | 11.3 | 0.00 | 0.23 | 0.00 | 85 | 1009.9 |
| 20260510143031 | 13 | 175 | 0.0 | 9.7 | 0.00 | 0.23 | 0.00 | 83 | 1010.0 |
| 20260510140800 | 14 | 195 | 1.6 | 16.1 | 0.00 | 0.23 | 0.00 | 82 | 1009.9 |
| 20260510135300 | 13 | 195 | 1.6 | 14.5 | 0.00 | 0.23 | 0.00 | 86 | 1010.0 |
| 20260510133801 | 13 | 175 | 4.8 | 14.5 | 0.00 | 0.23 | 0.00 | 86 | 1010.0 |
| 20260510132300 | 12 | 195 | 0.0 | 8.0 | 0.00 | 0.23 | 0.00 | 89 | 1010.2 |
| 20260510131535 | 12 | 344 | 0.0 | 12.9 | 0.00 | 0.23 | 0.00 | 89 | 1010.2 |
| 20260510125256 | 12 | 184 | 1.6 | 12.9 | 0.00 | 0.23 | 0.00 | 91 | 1009.7 |
| 20260510123755 | 11 | 143 | 0.0 | 4.8 | 0.00 | 0.23 | 0.00 | 94 | 1009.8 |
| 20260510122248 | 10 | 144 | 0.0 | 4.8 | 0.00 | 0.23 | 0.00 | 96 | 1010.2 |
| 20260510120749 | 10 | 119 | 0.0 | 4.8 | 0.00 | 0.23 | 0.00 | 97 | 1010.2 |
| 20260510115241 | 10 | 122 | 0.0 | 3.2 | 0.00 | 0.23 | 0.00 | 98 | 1010.3 |
| 20260510113743 | 9 | 129 | 0.0 | 3.2 | 0.00 | 0.23 | 0.00 | 99 | 1010.1 |
| 20260510112237 | 8 | 192 | 0.0 | 0.0 | 0.00 | 0.23 | 0.00 | 98 | 1009.8 |
| 20260510111509 | 8 | 192 | 0.0 | 9.7 | 0.00 | 0.23 | 0.00 | 99 | 1009.8 |
| 20260510105233 | 8 | 177 | 0.0 | 0.0 | 0.00 | 0.23 | 0.00 | 99 | 1009.3 |
| 20260510103732 | 7 | 113 | 0.0 | 0.0 | 0.00 | 0.23 | 0.00 | 98 | 1009.6 |
| 20260510103004 | 7 | 111 | 0.0 | 0.0 | 0.00 | 0.23 | 0.00 | 98 | 1009.2 |
| 20260510100732 | 7 | 111 | 0.0 | 0.0 | 0.00 | 0.23 | 0.00 | 98 | 1008.7 |
| 20260510095230 | 7 | 111 | 0.0 | 0.0 | 0.00 | 0.23 | 0.00 | 98 | 1008.7 |
| 20260510094458 | 7 | 111 | 0.0 | 0.0 | 0.00 | 0.23 | 0.00 | 98 | 1008.4 |
| 20260510092228 | 7 | 111 | 0.0 | 0.0 | 0.00 | 0.23 | 0.00 | 97 | 1008.2 |
| 20260510090726 | 7 | 111 | 0.0 | 0.0 | 0.00 | 0.23 | 0.00 | 97 | 1008.3 |
| 20260510085222 | 7 | 111 | 0.0 | 0.0 | 0.00 | 0.23 | 0.00 | 97 | 1008.0 |
| 20260510084453 | 7 | 111 | 0.0 | 0.0 | 0.00 | 0.23 | 0.00 | 97 | 1008.2 |
| 20260510082217 | 7 | 111 | 0.0 | 0.0 | 0.00 | 0.23 | 0.00 | 97 | 1008.7 |
| 20260510080718 | 7 | 111 | 0.0 | 0.0 | 0.00 | 0.23 | 0.00 | 97 | 1009.1 |
| 20260510075216 | 7 | 111 | 0.0 | 0.0 | 0.00 | 0.23 | 0.00 | 97 | 1008.8 |
| 20260510074446 | 7 | 111 | 0.0 | 0.0 | 0.00 | 0.23 | 0.00 | 97 | 1008.7 |
| 20260510072210 | 7 | 111 | 0.0 | 0.0 | 0.00 | 0.23 | 0.00 | 97 | 1008.6 |
| 20260510070709 | 7 | 111 | 0.0 | 0.0 | 0.00 | 0.23 | 0.00 | 97 | 1008.5 |
| 20260510065209 | 7 | 111 | 0.0 | 0.0 | 0.00 | 0.23 | 0.00 | 97 | 1008.8 |
| 20260510063709 | 8 | 111 | 0.0 | 0.0 | 0.00 | 0.23 | 0.00 | 97 | 1008.9 |
| 20260510062209 | 8 | 111 | 0.0 | 0.0 | 0.00 | 0.23 | 0.00 | 97 | 1008.7 |
| 20260510060705 | 8 | 111 | 0.0 | 0.0 | 0.00 | 0.23 | 0.00 | 97 | 1008.8 |
| 20260510055203 | 8 | 111 | 0.0 | 0.0 | 0.00 | 0.23 | 0.00 | 97 | 1008.7 |
| 20260510053703 | 8 | 111 | 0.0 | 9.7 | 0.00 | 0.23 | 0.00 | 97 | 1008.9 |
| 20260510052205 | 8 | 181 | 0.0 | 3.2 | 0.00 | 0.23 | 0.00 | 97 | 1008.9 |
| 20260510050657 | 8 | 183 | 0.0 | 3.2 | 0.00 | 0.23 | 0.00 | 97 | 1008.8 |
| 20260510045929 | 8 | 123 | 0.0 | 9.7 | 0.00 | 0.23 | 0.00 | 97 | 1009.1 |
| 20260510043652 | 8 | 183 | 0.0 | 3.2 | 0.00 | 0.23 | 0.00 | 98 | 1009.3 |
| 20260510042922 | 7 | 189 | 0.0 | 3.2 | 0.00 | 0.23 | 0.00 | 97 | 1009.0 |
| 20260510040644 | 7 | 189 | 0.0 | 4.8 | 0.00 | 0.23 | 0.00 | 97 | 1009.0 |
| 20260510035145 | 7 | 185 | 0.0 | 0.0 | 0.00 | 0.23 | 0.23 | 97 | 1009.3 |
| 20260510033637 | 7 | 185 | 0.0 | 0.0 | 0.00 | 0.23 | 0.23 | 97 | 1009.3 |
| 20260510032907 | 7 | 185 | 0.0 | 0.0 | 0.00 | 0.23 | 0.23 | 97 | 1009.3 |
| 20260510030636 | 7 | 185 | 0.0 | 0.0 | 0.00 | 0.23 | 0.23 | 97 | 1009.4 |
| 20260510025137 | 7 | 185 | 0.0 | 0.0 | 0.00 | 0.23 | 0.23 | 97 | 1009.6 |
| 20260510023637 | 7 | 185 | 0.0 | 3.2 | 0.00 | 0.23 | 0.23 | 97 | 1009.7 |
| 20260510022136 | 7 | 185 | 0.0 | 6.4 | 0.00 | 0.23 | 0.23 | 97 | 1009.8 |
| 20260510020636 | 7 | 196 | 0.0 | 0.0 | 0.00 | 0.23 | 0.23 | 97 | 1009.8 |
| 20260510015133 | 7 | 196 | 0.0 | 4.8 | 0.00 | 0.23 | 0.23 | 97 | 1009.9 |
| 20260510013632 | 7 | 198 | 0.0 | 3.2 | 0.00 | 0.23 | 0.23 | 97 | 1010.0 |
| 20260510012133 | 7 | 198 | 0.0 | 4.8 | 0.00 | 0.23 | 0.23 | 97 | 1010.0 |
| 20260510010631 | 7 | 196 | 0.0 | 4.8 | 0.00 | 0.23 | 0.23 | 96 | 1009.9 |
| 20260510005129 | 7 | 195 | 1.6 | 6.4 | 0.00 | 0.23 | 0.23 | 96 | 1009.9 |
| 20260510003628 | 7 | 189 | 0.0 | 6.4 | 0.00 | 0.23 | 0.23 | 96 | 1009.9 |
| 20260510002128 | 7 | 188 | 0.0 | 6.4 | 0.00 | 0.23 | 0.23 | 96 | 1009.7 |
| 20260510001358 | 7 | 190 | 0.0 | 4.8 | 0.00 | 0.23 | 0.23 | 96 | 1009.4 |
| 20260509235127 | 8 | 192 | 1.6 | 6.4 | 0.00 | 0.23 | 0.23 | 96 | 1009.1 |
| 20260509233628 | 8 | 186 | 0.0 | 6.4 | 0.00 | 0.23 | 0.23 | 96 | 1009.1 |
| 20260509232127 | 8 | 186 | 0.0 | 6.4 | 0.00 | 0.23 | 0.23 | 96 | 1009.1 |
| 20260509230624 | 8 | 184 | 0.0 | 6.4 | 0.00 | 0.23 | 0.23 | 96 | 1009.0 |
| 20260509225124 | 8 | 184 | 0.0 | 8.0 | 0.00 | 0.23 | 0.23 | 96 | 1009.1 |
| 20260509224355 | 8 | 182 | 1.6 | 6.4 | 0.00 | 0.23 | 0.23 | 95 | 1009.1 |
| 20260509222121 | 8 | 142 | 0.0 | 0.0 | 0.00 | 0.23 | 0.23 | 95 | 1009.1 |
| 20260509220623 | 8 | 142 | 0.0 | 6.4 | 0.00 | 0.23 | 0.23 | 95 | 1009.3 |
| 20260509215115 | 8 | 213 | 0.0 | 8.0 | 0.00 | 0.23 | 0.23 | 95 | 1009.4 |
| 20260509213616 | 8 | 187 | 1.6 | 9.7 | 0.03 | 0.23 | 0.23 | 95 | 1009.7 |
| 20260509213611 | 8 | 185 | 1.6 | 6.4 | 0.03 | 0.23 | 0.23 | 95 | 1009.9 |
| 20260509210612 | 8 | 182 | 0.0 | 6.4 | 0.03 | 0.23 | 0.23 | 95 | 1009.8 |
| 20260509205109 | 8 | 159 | 0.0 | 6.4 | 0.05 | 0.23 | 0.23 | 95 | 1009.8 |
| 20260509203609 | 8 | 156 | 0.0 | 3.2 | 0.03 | 0.20 | 0.20 | 95 | 1010.0 |
| 20260509202842 | 7 | 202 | 1.6 | 8.0 | 0.03 | 0.20 | 0.20 | 95 | 1010.0 |
| 20260509200608 | 7 | 169 | 1.6 | 6.4 | 0.05 | 0.20 | 0.20 | 95 | 1010.0 |
| 20260509195107 | 7 | 160 | 0.0 | 0.0 | 0.03 | 0.18 | 0.18 | 94 | 1010.2 |
| 20260509193605 | 7 | 160 | 0.0 | 3.2 | 0.05 | 0.18 | 0.18 | 94 | 1010.3 |
| 20260509192105 | 7 | 161 | 0.0 | 4.8 | 0.05 | 0.18 | 0.18 | 94 | 1010.4 |
| 20260509190604 | 7 | 194 | 0.0 | 6.4 | 0.03 | 0.15 | 0.15 | 93 | 1010.4 |
| 20260509185057 | 7 | 155 | 0.0 | 4.8 | 0.05 | 0.15 | 0.15 | 92 | 1010.5 |
| 20260509184326 | 7 | 188 | 0.0 | 8.0 | 0.03 | 0.13 | 0.13 | 93 | 1010.7 |
| 20260509182050 | 7 | 186 | 1.6 | 16.1 | 0.05 | 0.13 | 0.13 | 92 | 1010.8 |
| 20260509181322 | 7 | 177 | 3.2 | 17.7 | 0.05 | 0.13 | 0.13 | 92 | 1010.8 |
| 20260509175046 | 7 | 194 | 3.2 | 14.5 | 0.05 | 0.10 | 0.10 | 91 | 1010.8 |
| 20260509173550 | 7 | 150 | 3.2 | 14.5 | 0.05 | 0.10 | 0.10 | 91 | 1011.1 |
| 20260509172046 | 7 | 170 | 3.2 | 11.3 | 0.05 | 0.08 | 0.08 | 92 | 1011.1 |
| 20260509170544 | 7 | 173 | 3.2 | 11.3 | 0.05 | 0.08 | 0.08 | 91 | 1011.3 |
| 20260509165044 | 7 | 136 | 1.6 | 9.7 | 0.03 | 0.05 | 0.05 | 91 | 1011.4 |
| 20260509164315 | 7 | 177 | 3.2 | 12.9 | 0.03 | 0.05 | 0.05 | 89 | 1011.6 |
| 20260509162042 | 7 | 151 | 1.6 | 11.3 | 0.00 | 0.03 | 0.03 | 89 | 1011.7 |